Hourly Data Report for April 12, 2017

OTTAWA INTL A
ONTARIO

45°19'00.000" N
75°40'00.000" W
114.90 m
6106001
71628
YOW

Download Data

Hourly Data (April 2017)
Hourly Data Report for April 12, 2017
TIME
LST
Temp Definition
°C
Dew Point Definition
°C
Rel Hum Definition
%
Precip. Amount Definition
mm

Wind Dir Definition
10's deg

Wind Spd Definition
km/h
Visibility Definition
km
Stn Press Definition
kPa
Hmdx Definition


Wind Chill Definition


Weather Definition


00:00 5.8 5.8 100   7 13 6.4 100.46     Fog
01:00 5.7 5.7 100   9 14 4.8 100.40     Fog
02:00 5.5 5.5 100   7 8 2.4 100.37     Fog
03:00 5.3 5.3 100   10 5 0.8 100.38     Fog
04:00 5.2 5.2 100   13 7 0.4 100.40     Fog
05:00 5.7 5.7 100   22 6 0.4 100.44     Fog
06:00 6.5 6.5 100   26 21 9.7 100.50     Fog
07:00 6.7 5.7 93   24 22 24.1 100.60     Cloudy
08:00 6.8 5.0 88   24 23 24.1 100.66     LegendNANA
09:00 7.4 4.2 80   27 25 24.1 100.68     LegendNANA
10:00 7.3 3.7 78   26 26 24.1 100.70     Mostly Cloudy
11:00 8.7 3.2 68   25 19 24.1 100.69     LegendNANA
12:00 8.9 2.3 63   26 22 24.1 100.71     LegendNANA
13:00 7.4 2.9 73   31 25 24.1 100.74     Cloudy
14:00 8.1 3.0 70   31 18 24.1 100.74     LegendNANA
15:00 7.2 3.3 76   29 22 24.1 100.79     LegendNANA
16:00 8.2 3.7 73   26 16 24.1 100.77     Mostly Cloudy
17:00 7.1 2.4 72   30 19 24.1 100.84     Rain
18:00 6.4 2.5 76   30 16 24.1 100.90     LegendNANA
19:00 6.1 1.5 72   28 16 24.1 100.96     Cloudy
20:00 4.8 1.7 80   31 22 24.1 101.07     LegendNANA
21:00 4.0 1.2 82   30 28 24.1 101.13     Rain
22:00 3.8 0.5 79   27 20 24.1 101.17     Cloudy
23:00 3.8 -0.2 75   27 20 24.1 101.16     LegendNANA

Notes on Data Quality.

Legend

  • E = Estimated
  • M = Missing
  • NA = Not Available*
  • [empty] = Indicates an unobserved value
Date modified: